{"data":{"norad_id":42075,"epoch":"2026-09-19T20:20:09.458880Z","epoch_age_seconds":82234,"freshness":"FRESH","line1":"1 42075U 17016A   26262.84733170  .00000000  00000+0  00000+0 0  9992","line2":"2 42075   0.0157 173.3784 0000293 312.3091 166.1214  1.00270430 34846","mean_motion":1.0027043,"eccentricity":2.93e-5,"inclination_deg":0.0157,"raan_deg":173.3784,"arg_perigee_deg":312.3091,"mean_anomaly_deg":166.1214,"bstar":0,"rev_number":3484,"period_min":1436.1163106611,"perigee_km":35785.73938338,"apogee_km":35788.210258933,"semimajor_km":42165.111821156,"source":"CELESTRAK","updated_at":"2026-09-20T09:00:35.251924Z"}}